This is the latest recevied weather packets stored in our database for station/object KC9DRE. If no packets are shown the sender has not sent any weather packets the latest 10 day(s).
| Time | Temp. | Humidity | Pressure | Rain* | Wind** | Luminosity | Snow |
|---|---|---|---|---|---|---|---|
| 1778362154 | 26.67° C | 38% | 1009 hPa | 0 mm | - | 430 W/m² | - |
| 1778361851 | 26.11° C | 40% | 1008.9 hPa | 0 mm | - | 439 W/m² | - |
| 1778361547 | 26.67° C | 41% | 1009 hPa | 0 mm | - | 452 W/m² | - |
| 1778361243 | 26.67° C | 37% | 1008.9 hPa | 0 mm | - | 469 W/m² | - |
| 1778360939 | 26.67° C | 40% | 1009 hPa | 0 mm | - | 482 W/m² | - |
| 1778360638 | 26.67° C | 38% | 1009.1 hPa | 0 mm | - | 500 W/m² | - |
| 1778360338 | 26.67° C | 40% | 1009.2 hPa | 0 mm | - | 515 W/m² | - |
| 1778360032 | 26.67° C | 41% | 1009 hPa | 0 mm | - | 530 W/m² | - |
| 1778359729 | 26.67° C | 39% | 1008.9 hPa | 0 mm | - | 549 W/m² | - |
| 1778359426 | 26.67° C | 40% | 1009 hPa | 0 mm | - | 565 W/m² | - |
| 1778359122 | 26.67° C | 39% | 1009.2 hPa | 0 mm | - | 580 W/m² | - |
| 1778358818 | 26.67° C | 39% | 1009 hPa | 0 mm | - | 596 W/m² | - |
| 1778358515 | 26.11° C | 40% | 1009.3 hPa | 0 mm | - | 612 W/m² | - |
| 1778358212 | 26.67° C | 38% | 1009.1 hPa | 0 mm | - | 631 W/m² | - |
| 1778357911 | 26.67° C | 42% | 1009.1 hPa | 0 mm | - | 646 W/m² | - |
| 1778357607 | 26.67° C | 43% | 1009.1 hPa | 0 mm | - | 666 W/m² | - |
| 1778357304 | 26.67° C | 40% | 1009.3 hPa | 0 mm | - | 677 W/m² | - |
| 1778356999 | 26.67° C | 43% | 1009.2 hPa | 0 mm | - | 692 W/m² | - |
| 1778356697 | 26.67° C | 43% | 1009.3 hPa | 0 mm | - | 704 W/m² | - |
| 1778356396 | 26.11° C | 46% | 1009.4 hPa | 0 mm | - | 711 W/m² | - |
| 1778356091 | 26.11° C | 42% | 1009.4 hPa | 0 mm | - | 728 W/m² | - |
| 1778355787 | 26.11° C | 42% | 1009.3 hPa | 0 mm | - | 737 W/m² | - |
| 1778355484 | 25.56° C | 45% | 1009.4 hPa | 0 mm | - | 749 W/m² | - |
| 1778355184 | 25.56° C | 48% | 1009.5 hPa | 0 mm | - | 758 W/m² | - |
| 1778354880 | 25.56° C | 48% | 1009.7 hPa | 0 mm | - | 767 W/m² | - |
* Rain latest hour (hover to see other rain measurements)
** Current wind speed in m/s (hover to see current wind gust speed)